#timestamp,LO_Frequency,Hit,StdDev 
1604714415.8,286046994.9,Y
1604714435.6,286047000.2,P
1604714455.4,286047000.9,N
1604714475.3,286046999.5,N
1604714495.1,286046997.5,N
1604714515.9,286046997.3,N
1604714535.7,286046999.2,N
1604714555.5,286047005.9,Y
1604714575.4,286047008.6,P
1604714595.2,286047010.7,N
1604714615.0,286047013.8,N
1604714615.9,286047013.8,N
1604714635.8,286047009.7,N
1604714655.6,286047014.7,N
1604714675.5,286047016.7,Y
1604714695.3,286047003.4,P
1604714715.1,286047005.6,N
1604714735.9,286047006.9,N
1604714755.7,286047005.5,N
1604714775.5,286047004.3,N
1604714795.4,286047004.4,N
1604714815.2,286047001.0,N
1604714835.1,286046998.7,N
1604714836.0,286046998.7,N
1604714855.8,286046999.9,N
1604714875.6,286046999.4,N
1604714895.5,286046998.0,N
1604714915.3,286046996.2,N
1604714935.1,286046994.6,N
1604714955.9,286046994.2,N
1604714975.7,286046996.0,N
1604714995.6,286046996.1,N
1604715015.4,286046993.9,N
1604715035.2,286046994.2,N
1604715055.1,286046993.6,N
1604715056.0,286046993.6,N
1604715075.8,286047000.2,N
1604715095.6,286047003.2,N
1604715115.5,286047005.5,N
1604715135.3,286047003.2,N
1604715155.2,286047002.8,N
1604715175.9,286047000.0,N
1604715195.7,286046998.1,N
1604715215.6,286046996.6,N
1604715235.4,286046999.2,N
1604715255.2,286047001.2,N
1604715275.1,286046998.5,N
1604715276.0,286046998.5,N
1604715295.8,286046998.2,N
1604715315.7,286047001.2,N
1604715335.5,286047000.6,N
1604715355.3,286046999.1,N
1604715375.2,286046999.6,N
1604715395.0,286046995.2,N
1604715395.9,286046995.2,N
1604715415.8,286046998.6,N
1604715435.6,286047000.0,N
1604715455.4,286046998.6,N
1604715475.3,286046996.5,N
1604715495.1,286046997.8,N
1604715496.0,286046997.8,N
1604715515.8,286046999.5,N
1604715535.7,286046994.7,N
1604715555.5,286046993.5,N
1604715575.3,286046992.8,N
1604715595.2,286046991.8,N
1604715615.0,286046990.7,Y
1604715615.9,286046990.7,P
1604715635.8,286046992.9,N
1604715655.6,286046994.0,N
1604715675.4,286046995.1,N
1604715695.3,286046999.5,N
1604715715.1,286046999.1,N
1604715735.9,286046999.2,N
1604715755.7,286047001.1,N
1604715775.5,286046996.5,N
1604715795.4,286046999.4,N
1604715815.2,286046995.0,N
1604715835.0,286046995.2,N
1604715835.9,286046995.2,N
1604715855.8,286046994.6,N
1604715875.6,286046994.3,N
1604715895.4,286046996.0,N
1604715915.3,286047000.0,N
1604715935.1,286046997.3,N
1604715955.9,286046995.9,N
1604715975.7,286046997.7,N
1604715995.5,286046997.1,N
1604716015.4,286046997.4,N
1604716035.2,286046995.1,N
1604716055.0,286046996.1,N
1604716055.9,286046996.1,N
1604716075.8,286047001.0,N
1604716095.6,286047001.0,N
1604716115.5,286046997.6,N
1604716135.3,286046999.6,N
1604716155.1,286046996.9,N
1604716175.9,286046997.4,N
1604716195.7,286046997.6,N
1604716215.5,286046995.4,N
1604716235.4,286046995.1,N
1604716255.2,286046996.4,N
1604716275.1,286046993.3,Y
1604716276.0,286046993.3,P
1604716295.8,286046997.3,N
1604716315.6,286046997.0,N
1604716335.5,286046999.4,N
1604716355.3,286046996.9,N
1604716375.1,286046999.8,N
1604716395.9,286047003.6,N
1604716415.7,286047002.8,N
1604716435.6,286047004.0,N
1604716455.4,286047000.1,N
1604716475.2,286047000.1,N
1604716495.1,286046998.3,N
1604716496.0,286046998.3,N
1604716515.8,286046999.3,N
1604716535.7,286047001.1,N
1604716555.5,286047004.4,N
1604716575.3,286047007.3,N
1604716595.2,286047007.9,N
1604716615.0,286047007.4,N
1604716615.9,286047007.4,N
1604716635.7,286047003.6,N
1604716655.6,286047002.5,N
1604716675.4,286047001.7,N
1604716695.3,286047002.9,N
1604716715.1,286047004.3,N
1604716716.0,286047004.3,N
1604716735.8,286047007.2,N
1604716755.7,286047009.8,N
1604716775.5,286047004.7,N
1604716795.3,286047005.9,N
1604716815.2,286047003.4,N
1604716835.0,286047002.8,N
1604716835.9,286047002.8,N
1604716855.8,286047001.5,N
1604716875.6,286047002.3,N
1604716895.4,286047006.0,N
1604716915.3,286047009.1,Y
1604716935.1,286047001.9,P
1604716955.8,286047002.6,P
1604716975.7,286046999.9,N
1604716995.5,286047001.4,N
1604717015.4,286047005.9,Y
1604717035.2,286046999.2,P
1604717055.0,286046997.0,N
1604717055.9,286046997.0,N
1604717075.8,286046997.7,N
1604717095.6,286046997.1,N
1604717115.4,286046997.9,N
1604717135.3,286046998.5,N
1604717155.1,286046998.2,N
1604717175.9,286046999.4,N
1604717195.7,286046997.0,N
1604717215.5,286046995.3,Y
1604717235.4,286046997.0,P
1604717255.2,286047001.1,N
1604717275.0,286047011.9,P
1604717276.0,286047002.4,N
1604717295.8,286047005.7,N
1604717315.6,286047009.2,N
1604717335.5,286047009.1,N
1604717355.3,286047005.0,N
1604717375.1,286047004.8,N
1604717395.9,286047005.0,N
1604717415.7,286047009.2,N
1604717435.5,286047008.5,N
1604717455.4,286047012.2,N
1604717475.2,286047008.9,N
1604717495.1,286047009.0,N
1604717496.0,286047009.0,N
1604717515.8,286047003.0,N
1604717535.6,286047004.3,N
1604717555.5,286047008.8,N
1604717575.3,286047006.3,N
1604717595.2,286047010.8,N
1604717615.9,286047009.0,N
1604717635.7,286047004.6,N
1604717655.6,286047003.0,N
1604717675.4,286047006.1,N
1604717695.2,286047010.6,N
1604717715.1,286047007.7,N
1604717716.0,286047007.7,N
1604717735.8,286047009.2,N
1604717755.7,286047005.1,N
1604717775.5,286047003.8,N
1604717795.3,286047001.8,N
1604717815.2,286047002.4,N
1604717835.0,286047000.1,N
1604717835.9,286047000.1,N
1604717855.7,286046999.9,N
1604717875.6,286047002.2,N
1604717895.4,286047002.5,N
1604717915.3,286047004.4,N
1604717935.1,286047003.2,N
1604717936.0,286047003.2,N
1604717955.8,286047004.8,N
1604717975.7,286047008.6,N
1604717995.5,286047008.3,N
